Zurück zum Katalog

QIANFAN-45

AktivKommunikationPO
NORAD 62246·PAYLOAD·🇨🇳 China

Gestartet Dec 5, 2024 von Taiyuan Satellite Launch Center

Loading…

Nächste Überflüge (nächste 24 Stunden)

TLE

AktuellSource: Space-Track

Epoche: Sep 14, 2026, 21:26 UTC

1 62246U 24232K   26257.89353167  .00000092  00000-0  12398-3 0  9994
2 62246  89.0164  13.5183 0016280 114.2171 246.0684 13.51027834136548

Verfolge QIANFAN-45 in Echtzeit mit AllMySat

Download on the App Store